Location: Peterborough
(44.3091°N, 78.3197°W)
Time: 06:35:41
(UTC-04:00)

Vanguard 1 Rocket - Pass Details

Date: 29 March 2023
Orbit: 655 x 4220 km, 34.3° (Epoch: 04 June)

Event Time Altitude Azimuth Distance (km) Brightness Sun altitude
Rises 02:19:55 0° 267° (W) 8,063 12.0 -40.4°
Reaches altitude 10° 02:26:11 10° 264° (W) 6,647 11.5 -40.0°
Enters shadow 02:29:26 16° 261° (W) 5,875 11.2 -39.8°
Maximum altitude 02:44:32 53° 196° (SSW) 2,692 - -38.6°
Exits shadow 02:52:24 19° 127° (SE) 3,246 10.1 -37.9°
Drops below altitude 10° 02:54:08 10° 122° (ESE) 3,659 10.4 -37.8°
Sets 02:56:33 0° 117° (ESE) 4,323 10.9 -37.5°
